Stations météo

réclame
Mon MeteoGroup
Dax, France (7603): Température de l'air & dewpoint: 14.11.2017 12:00:00 - 20.11.2017 12:00:00 (CET)Dax, France (7603): Température de l'air 5cm: 14.11.2017 12:00:00 - 20.11.2017 12:00:00 (CET)Dax, France (7603): Température de l'air -20cm & Température de l'air -100cm: 14.11.2017 12:00:00 - 20.11.2017 12:00:00 (CET)Dax, France (7603): Vitesse du vent & gusts: 14.11.2017 12:00:00 - 20.11.2017 12:00:00 (CET)Dax, France (7603): Direction du vent: 14.11.2017 12:00:00 - 20.11.2017 12:00:00 (CET)Dax, France (7603): reduced air pressure: 14.11.2017 12:00:00 - 20.11.2017 12:00:00 (CET)Dax, France (7603): visibility: 14.11.2017 12:00:00 - 20.11.2017 12:00:00 (CET)Dax, France (7603): Ensoleillement: 14.11.2017 12:00:00 - 20.11.2017 12:00:00 (CET)Dax, France (7603): Quantités de précipitations: 14.11.2017 12:00:00 - 20.11.2017 12:00:00 (CET)
Date & Time tt [°C] td [°C] tt 5cm [°C] tt -20cm [°C] tt -100cm [°C] ff [km/h] ff [knt] fx [km/h] fx [knt] dd ppp [hPa] vv [km] sd [min] rr [mm]
20.11.2017 12:00:00 8,6 6,2 9,8 9,5 14,3 9 5 13 7 NE 1024,6 7 60 0,0
20.11.2017 11:00:00 6,1 4,6 5,6 9,6 14,3 5 3 13 7 - 1025,3 3,0 60 0,0
20.11.2017 10:00:00 2,8 2,5 1,7 9,6 14,3 5 3 11 6 ENE 1025,2 1,0 60 0,0
20.11.2017 09:00:00 0,6 0,5 -1,2 9,7 14,3 5 3 10 6 E 1025,2 0,6 31 0,0
20.11.2017 08:00:00 -0,2 -0,5 -0,9 9,8 14,4 2 1 7 4 - 1025,3 0,4 0 0,0
20.11.2017 07:00:00 0,5 0,4 0,0 9,9 14,4 5 3 12 6 E 1024,9 0,3 0 0,0
20.11.2017 06:00:00 0,4 0,3 -0,1 9,9 14,4 5 3 11 6 - 1024,8 0,4 0 0,0
20.11.2017 05:00:00 0,7 0,4 -0,8 10,0 14,4 5 3 11 6 NE 1024,8 2,1 0 0,0
20.11.2017 04:00:00 0,8 0,5 -0,7 10,1 14,4 0 0 5 3 N 1024,8 1,7 0 0,0
20.11.2017 03:00:00 1,2 0,8 -0,1 10,1 14,4 5 3 10 5 - 1025,4 1,4 0 0,0
20.11.2017 02:00:00 2,7 2,6 -0,2 10,2 14,4 5 3 13 7 NE 1026,0 2,5 0 0,0
20.11.2017 01:00:00 2,3 2,0 0,3 10,3 14,4 4 2 8 4 - 1026,4 1,5 0 0,0
20.11.2017 00:00:00 2,0 1,6 0,3 10,4 14,4 0 0 7 4 N 1026,4 0,1 0 0,0
19.11.2017 23:00:00 3,3 3,0 2,1 10,5 14,4 4 2 10 5 - 1026,6 0,2 0 0,0
19.11.2017 22:00:00 4,1 3,7 1,9 10,5 14,5 4 2 6 4 NE 1026,4 1,7 0 0,0
19.11.2017 21:00:00 3,6 2,7 1,9 10,5 14,4 0 0 4 2 N 1025,9 2,8 0 0,0
19.11.2017 20:00:00 4,8 3,6 3,6 10,6 14,5 0 0 4 2 N 1026,0 3,4 0 0,0
19.11.2017 19:00:00 6,3 4,0 5,1 10,6 14,5 3 2 5 3 N 1025,8 3,5 0 0,0
19.11.2017 18:00:00 7,8 4,6 6,7 10,5 14,5 0 0 2 1 N 1025,6 10 11 0,0
19.11.2017 17:00:00 10,5 5,0 11,0 10,4 14,5 0 0 5 3 N 1025,3 10 60 0,0
19.11.2017 16:00:00 9,9 5,5 12,1 10,3 14,5 4 2 6 4 - 1025,3 10 60 0,0
19.11.2017 15:00:00 8,4 6,2 7,5 10,2 14,5 0 0 8 5 N 1025,5 7 37 0,0
19.11.2017 14:00:00 6,2 6,1 6,5 10,1 14,5 0 0 5 3 N 1026,3 2,7 0 0,0
19.11.2017 13:00:00 4,8 4,8 5,2 10,1 14,5 4 2 8 4 - 1026,7 0,3 0 0,0
19.11.2017 12:00:00 3,7 3,7 3,6 10,0 14,5 2 1 6 4 - 1027,1 0,1 0 0,0
19.11.2017 11:00:00 2,4 2,4 1,8 10,1 14,5 4 2 6 4 - 1027,0 - 0 0,0
19.11.2017 10:00:00 1,1 1,1 0,9 10,1 14,5 4 2 9 5 - 1026,6 - 0 0,0
19.11.2017 09:00:00 0,5 0,5 0,1 10,1 14,5 4 2 5 3 - 1026,5 - 0 0,0
19.11.2017 08:00:00 -0,1 -0,1 0,0 10,1 14,5 0 0 6 4 N 1026,0 - 0 0,0
19.11.2017 07:00:00 0,1 0,1 0,1 10,2 14,5 4 2 6 3 - 1025,8 - 0 0,0
19.11.2017 06:00:00 0,5 0,5 0,3 10,3 14,5 4 2 6 3 - 1025,4 - 0 0,0
19.11.2017 05:00:00 0,4 0,3 0,1 10,4 14,6 0 0 5 3 N 1025,3 0,1 0 0,0
19.11.2017 04:00:00 0,1 0,0 -0,2 10,4 14,6 0 0 4 2 N 1025,4 - 0 0,0
19.11.2017 03:00:00 0,2 0,1 -0,3 10,5 14,6 0 0 4 2 N 1025,4 0,1 0 0,0
19.11.2017 02:00:00 0,3 0,0 -0,3 10,6 14,6 2 1 4 2 ESE 1025,1 0,1 0 0,0
19.11.2017 01:00:00 0,8 0,5 -0,1 10,7 14,6 0 0 3 2 N 1025,4 - 0 0,0
19.11.2017 00:00:00 1,2 0,9 0,3 10,8 14,6 0 0 4 2 N 1025,5 - 0 0,0
18.11.2017 23:00:00 1,8 1,4 0,5 10,9 14,6 0 0 4 2 N 1025,6 - 0 0,0
18.11.2017 22:00:00 2,6 1,7 0,6 11,0 14,6 0 0 5 3 N 1025,6 1,4 0 0,0
18.11.2017 21:00:00 4,3 3,7 2,4 11,0 14,6 2 1 4 2 N 1025,5 0,8 0 0,0
18.11.2017 20:00:00 5,5 4,8 3,8 11,1 14,6 0 0 3 2 N 1025,2 1,9 0 0,0
18.11.2017 19:00:00 6,4 5,2 5,3 11,1 14,7 0 0 2 1 N 1025,1 2,5 0 0,0
18.11.2017 18:00:00 8,1 5,9 6,8 11,0 14,6 0 0 4 2 N 1024,9 7 12 0,0
18.11.2017 17:00:00 10,0 6,5 10,4 11,0 14,7 0 0 8 4 N 1024,7 9 60 0,0
18.11.2017 16:00:00 9,7 7,0 9,8 10,9 14,7 4 2 9 5 - 1024,5 3,3 58 0,0
18.11.2017 15:00:00 7,2 6,5 7,5 10,8 14,7 5 3 11 6 ESE 1024,7 1,2 11 0,0
18.11.2017 14:00:00 6,3 5,9 7,5 10,7 14,7 8 4 14 8 ENE 1025,1 0,7 2 0,0
18.11.2017 13:00:00 5,8 5,5 7,0 10,7 14,7 5 3 11 6 NNE 1025,3 1,2 3 0,0
18.11.2017 12:00:00 5,1 5,0 5,4 10,6 14,7 5 3 10 5 - 1025,7 0,5 0 0,0
18.11.2017 11:00:00 4,1 4,0 3,9 10,6 14,7 5 3 10 5 - 1025,7 0,1 0 0,0
18.11.2017 10:00:00 2,9 2,8 3,5 10,6 14,7 5 3 9 5 - 1025,4 0,1 0 0,0
18.11.2017 09:00:00 3,3 3,2 3,5 10,7 14,7 4 2 7 4 - 1024,9 0,1 0 0,0
18.11.2017 08:00:00 3,8 3,7 3,7 10,7 14,7 0 0 4 2 N 1024,4 - 0 0,0
18.11.2017 07:00:00 3,8 3,7 3,1 10,7 14,7 0 0 7 4 N 1024,0 0,2 0 0,0
18.11.2017 06:00:00 3,5 3,2 2,9 10,8 14,7 3 2 6 3 SSE 1023,8 0,1 0 0,0
18.11.2017 05:00:00 4,2 4,1 4,0 10,8 14,7 2 1 5 3 SE 1024,1 - 0 0,0
18.11.2017 04:00:00 4,8 4,7 3,9 10,8 14,7 4 2 7 4 - 1024,2 0,1 0 0,0
18.11.2017 03:00:00 4,2 4,1 3,9 10,9 14,8 0 0 5 3 N 1023,9 0,1 0 0,0
18.11.2017 02:00:00 4,0 3,9 3,9 10,9 14,8 4 2 5 3 SSW 1023,6 - 0 0,0
18.11.2017 01:00:00 4,1 3,8 3,1 11,0 14,8 0 0 3 1 N 1024,1 0,1 0 0,0
18.11.2017 00:00:00 4,3 3,9 3,5 11,0 14,8 0 0 4 2 N 1023,9 0,1 0 0,0
17.11.2017 23:00:00 4,8 4,2 3,5 11,1 14,8 0 0 4 2 N 1024,2 - 0 0,0
17.11.2017 22:00:00 5,5 4,5 4,3 11,1 14,8 0 0 2 1 N 1024,1 0,3 0 0,0
17.11.2017 21:00:00 7,1 6,4 5,8 11,1 14,8 0 0 5 3 N 1023,7 3,5 0 0,0
17.11.2017 20:00:00 7,7 6,2 6,3 11,1 14,8 2 1 4 2 S 1023,8 6 0 0,0
17.11.2017 19:00:00 10,3 7,9 9,1 11,1 14,8 2 1 9 5 - 1023,6 9 0 0,0
17.11.2017 18:00:00 12,0 7,9 11,1 11,0 14,8 5 3 10 5 W 1023,1 10 12 0,0
17.11.2017 17:00:00 14,5 6,1 14,4 10,8 14,9 4 2 11 6 - 1022,8 10 57 0,0
17.11.2017 16:00:00 15,4 6,7 16,8 10,7 14,9 5 3 14 8 WNW 1022,7 10 60 0,0
17.11.2017 15:00:00 15,3 6,6 16,8 10,5 14,9 8 4 16 8 WNW 1022,8 10 40 0,0
17.11.2017 14:00:00 15,5 8,5 16,6 10,4 14,9 0 0 9 5 N 1023,0 10 60 0,0
17.11.2017 13:00:00 13,6 8,0 16,7 10,2 14,9 5 3 9 5 W 1023,7 20 60 0,0
17.11.2017 12:00:00 12,2 7,3 14,0 10,2 14,9 0 0 4 2 N 1024,2 10 60 0,0
17.11.2017 11:00:00 8,0 5,8 7,7 10,2 14,9 0 0 8 4 N 1024,6 10 60 0,0
17.11.2017 10:00:00 4,8 4,5 2,9 10,3 15,0 0 0 6 4 N 1024,7 10 27 0,0
17.11.2017 09:00:00 2,2 1,8 0,9 10,4 15,0 2 1 5 3 - 1024,5 10 0 0,0
17.11.2017 08:00:00 1,5 1,1 -0,2 10,4 15,0 5 3 7 4 SE 1024,0 10 0 0,0
17.11.2017 07:00:00 1,2 0,6 -0,1 10,5 15,0 0 0 5 3 N 1023,9 4,0 0 0,0
17.11.2017 06:00:00 1,3 0,6 0,0 10,6 15,0 0 0 4 2 N 1023,8 5 0 0,0
17.11.2017 05:00:00 1,9 1,3 0,6 10,6 15,0 0 0 2 1 N 1023,7 5 0 0,0
17.11.2017 04:00:00 2,1 1,4 1,1 10,7 15,1 0 0 5 3 N 1023,7 6 0 0,0
17.11.2017 03:00:00 2,3 1,6 1,0 10,8 15,1 0 0 3 1 N 1023,7 5 0 0,0
17.11.2017 02:00:00 2,4 1,7 0,9 10,8 15,1 0 0 5 3 N 1023,6 5 0 0,0
17.11.2017 01:00:00 3,1 2,4 1,9 10,9 15,1 0 0 5 3 N 1023,9 4,7 0 0,0
17.11.2017 00:00:00 3,4 2,5 1,9 11,0 15,1 0 0 3 2 N 1023,9 4,6 0 0,0
16.11.2017 23:00:00 4,6 3,7 3,3 11,0 15,1 0 0 3 2 N 1023,7 4,0 0 0,0
16.11.2017 22:00:00 5,5 4,8 4,1 11,1 15,1 0 0 7 4 N 1023,5 5 0 0,0
16.11.2017 21:00:00 6,0 4,8 4,9 11,1 15,1 0 0 3 2 N 1023,5 5 0 0,0
16.11.2017 20:00:00 7,0 5,3 6,3 11,1 15,1 0 0 4 2 N 1023,4 6 0 0,0
16.11.2017 19:00:00 8,1 5,6 7,0 11,1 15,1 0 0 5 3 N 1023,2 5 0 0,0
16.11.2017 18:00:00 10,9 5,8 9,6 11,0 15,2 0 0 3 2 N 1022,7 10 0 0,0
16.11.2017 17:00:00 14,3 5,6 14,4 10,8 15,2 2 1 10 5 - 1022,2 10 33 0,0
16.11.2017 16:00:00 15,3 5,2 18,6 10,7 15,2 5 3 10 5 - 1021,9 10 60 0,0
16.11.2017 15:00:00 14,4 4,1 17,0 10,5 15,2 4 2 11 6 NNE 1021,7 30 54 0,0
16.11.2017 14:00:00 13,8 4,4 17,3 10,4 15,2 5 3 11 6 - 1021,9 10 60 0,0
16.11.2017 13:00:00 12,6 5,5 14,8 10,3 15,2 2 1 7 4 - 1022,3 10 60 0,0
16.11.2017 12:00:00 10,1 5,9 11,4 10,2 15,2 2 1 9 5 - 1022,7 10 60 0,0
16.11.2017 11:00:00 8,1 4,5 6,3 10,3 15,2 0 0 9 5 N 1023,0 10 58 0,0
16.11.2017 10:00:00 3,9 2,9 1,7 10,3 15,2 0 0 7 4 N 1022,6 10 50 0,0
16.11.2017 09:00:00 0,6 0,0 -1,5 10,5 15,3 4 2 8 5 - 1022,3 10 29 0,0
16.11.2017 08:00:00 -0,6 -1,0 -1,9 10,5 15,3 2 1 6 3 E 1021,9 10 0 0,0
16.11.2017 07:00:00 -0,2 -0,6 -1,7 10,6 15,3 0 0 5 3 N 1021,4 3,0 0 0,0
16.11.2017 06:00:00 -0,3 -0,9 -1,9 10,7 15,3 0 0 3 2 N 1020,9 4,5 0 0,0
16.11.2017 05:00:00 0,2 -0,4 -1,1 10,8 15,3 0 0 4 2 N 1020,9 3,1 0 0,0
16.11.2017 04:00:00 0,8 0,4 -0,9 10,9 15,3 2 1 6 3 - 1021,0 2,4 0 0,0
16.11.2017 03:00:00 1,1 0,7 -0,8 11,0 15,4 2 1 7 4 ESE 1021,1 3,3 0 0,0
16.11.2017 02:00:00 0,7 0,1 -0,8 11,0 15,3 4 2 5 3 ESE 1021,3 2,8 0 0,0
16.11.2017 01:00:00 1,2 0,3 0,0 11,2 15,4 0 0 3 2 N 1021,6 3,5 0 0,0
16.11.2017 00:00:00 1,9 1,2 0,2 11,2 15,4 0 0 3 1 N 1021,6 4,0 0 0,0
15.11.2017 23:00:00 2,3 1,3 0,9 11,3 15,4 0 0 2 1 N 1021,8 3,8 0 0,0
15.11.2017 22:00:00 3,1 2,1 1,9 11,4 15,4 0 0 5 3 N 1021,6 3,8 0 0,0
15.11.2017 21:00:00 3,9 2,7 2,8 11,4 15,4 4 2 6 3 NNW 1021,9 5 0 0,0
15.11.2017 20:00:00 5,4 3,9 4,1 11,5 15,4 2 1 6 3 NNE 1021,7 5 0 0,0
15.11.2017 19:00:00 6,7 3,7 5,4 11,5 15,4 0 0 5 3 N 1021,3 9 0 0,0
15.11.2017 18:00:00 9,5 3,7 7,9 11,4 15,4 4 2 10 6 - 1021,1 10 14 0,0
15.11.2017 17:00:00 10,7 4,2 11,1 11,3 15,5 5 3 14 7 NE 1021,0 9 60 0,0
15.11.2017 16:00:00 10,8 4,5 13,6 11,1 15,5 5 3 11 6 - 1021,0 9 60 0,0
15.11.2017 15:00:00 10,7 4,2 11,9 11,0 15,4 2 1 11 6 - 1021,3 9 56 0,0
15.11.2017 14:00:00 9,2 4,2 10,8 10,9 15,5 4 2 9 5 - 1021,7 10 36 0,0
15.11.2017 13:00:00 7,1 3,2 8,2 10,8 15,5 2 1 10 5 - 1022,5 10 44 0,0
15.11.2017 12:00:00 5,2 4,0 4,5 10,8 15,5 5 3 7 4 SE 1023,6 8 39 0,0
15.11.2017 11:00:00 2,4 2,3 1,7 10,8 15,5 4 2 7 4 - 1024,0 0,5 27 0,0
15.11.2017 10:00:00 0,9 0,8 0,3 10,9 15,5 4 2 9 5 - 1024,3 0,3 5 0,0
15.11.2017 09:00:00 0,3 0,0 -0,1 11,0 15,5 4 2 9 5 - 1024,0 0,4 0 0,0
15.11.2017 08:00:00 0,6 0,2 -0,2 11,1 15,5 4 2 14 7 - 1024,0 3,0 0 0,0
15.11.2017 07:00:00 0,7 0,3 -0,6 11,2 15,6 4 2 12 6 - 1023,9 5 0 0,0
15.11.2017 06:00:00 0,8 0,4 -1,1 11,3 15,6 7 4 10 6 ENE 1024,0 5 0 0,0
15.11.2017 05:00:00 0,5 -0,2 -1,1 11,4 15,6 4 2 4 2 - 1024,1 4,7 0 0,0
15.11.2017 04:00:00 1,2 0,5 -0,1 11,5 15,6 0 0 7 4 N 1024,3 6 0 0,0
15.11.2017 03:00:00 1,8 0,9 0,8 11,6 15,6 2 1 8 4 - 1024,6 7 0 0,0
15.11.2017 02:00:00 1,9 1,0 0,5 11,6 15,6 4 2 6 4 - 1024,8 6 0 0,0
15.11.2017 01:00:00 2,3 1,3 0,7 11,7 15,6 2 1 7 4 NE 1025,3 4,9 0 0,0
15.11.2017 00:00:00 2,9 1,6 1,4 11,8 15,6 4 2 8 4 - 1025,7 8 0 0,0
14.11.2017 23:00:00 4,0 1,0 1,6 11,9 15,6 5 3 13 7 ENE 1026,1 9 0 0,0
14.11.2017 22:00:00 3,1 1,3 1,9 12,0 15,6 0 0 6 3 N 1026,5 7 0 0,0
14.11.2017 21:00:00 4,9 1,7 3,2 12,0 15,7 0 0 9 5 N 1026,4 6 0 0,0
14.11.2017 20:00:00 6,1 2,7 4,5 12,0 15,6 2 1 7 4 N 1026,3 9 0 0,0
14.11.2017 19:00:00 7,9 2,6 6,3 12,1 15,7 4 2 11 6 - 1026,1 10 0 0,0
14.11.2017 18:00:00 9,6 2,4 8,5 12,0 15,7 5 3 14 7 - 1025,7 10 15 0,0
14.11.2017 17:00:00 11,0 2,0 11,3 11,9 15,7 8 4 16 9 ENE 1025,5 10 60 0,0
14.11.2017 16:00:00 11,5 2,0 13,6 11,8 15,7 8 4 18 10 ENE 1025,7 10 60 0,0
14.11.2017 15:00:00 11,4 2,4 13,6 11,7 15,7 8 4 22 12 NE 1026,1 10 60 0,0
14.11.2017 14:00:00 10,7 2,0 12,8 11,6 15,7 11 6 23 12 ENE 1026,6 10 60 0,0
14.11.2017 13:00:00 9,9 3,6 12,2 11,5 15,7 9 5 15 8 NE 1027,3 10 60 0,0
14.11.2017 12:00:00 7,2 3,2 9,6 11,6 15,7 5 3 11 6 NNE 1028,0 10 60 0,0

tt = Température de l'air
td = dewpoint
tt 5cm = Température de l'air 5cm
tt -20cm = Température de l'air -20cm
tt -100cm = Température de l'air -100cm
ff = Vitesse du vent
fx = gusts
dd = Direction du vent
ppp = reduced air pressure
vv = visibility
sd = Ensoleillement
rr = Quantités de précipitations

stations d'obs. à proximité